Weather in Kovshovo

Russia / Ivanovo Oblast     56°48′53″N   41°51′17″E
temp.,
°C
wind,
m/s
gust,
m/s
humid.,
%
clouds,
%
prec.,
mm/h
press.,
hPa
HPBL,
m
22 june, tue
tue2200:00+20sw1173100 0.0 102111
03:00+19sw1178100 0.0 102211
06:00+22ssw237899 0.0 1022105
09:00+27wsw23565 0.0 1022609
12:00+30sw22432 0.0 10211851
15:00+31sw22351 0.0 10202158
18:00+29wsw23510 0.0 1020150
21:00+22wsw11710 0.0 102011
23 june, wed
wed2300:00+20w11790 0.0 102011
03:00+19wnw22862 0.0 102126
06:00+22nw11770 0.0 102186
09:00+28nw115625 0.0 1021555
12:00+31nw234397 0.0 10211603
15:00+32nnw2242100 0.0 10201579
18:00+30nne235542 0.0 1020184
21:00+24nw117328 0.0 102011
24 june, thu
thu2400:00+22wnw11797 0.0 102011
03:00+21w118295 0.0 102011
06:00+24w1379100 0.0 102096
09:00+29wnw235897 0.0 1020529
12:00+33nw234254 0.0 10191747
15:00+34nnw34365 0.0 10182160
18:00+31nne24535 0.0 1017268
21:00+25ssw11755 0.0 101611
25 june, fri
fri2500:00+23w22760 0.0 101722
03:00+21w228163 0.2 101729
06:00+24w138115 0.4 101699
09:00+29w24562 0.4 1016589
12:00+33w35360 0.0 10161874
15:00+34w35325 0.0 10152813
18:00+31nne12542 0.0 1013373
21:00+25se007769 0.0 101311
26 june, sat
sat2600:00+19nnw279374 1.3 1015156
03:00+18nw2292100 1.3 101421
06:00+20nw24885 0.0 1014138
09:00+26w24605 0.0 1014609
12:00+30wnw34445 0.0 10131350
15:00+31nw244295 0.0 10121846
18:00+30wsw245595 0.0 1011969
21:00+23nnw11825 0.1 101115